K7KWR Weather Reports


Display with metric or nautical units.
time (UTC)temp
F
wind
direction
speed
MPH
gust
MPH
rain 1hr
in
rain 24hr
in
rain mn
in
humidity
%
barometer
mb
20200928145946 74 174 0.0 0.0 5.70 0.00 0.00
20200928144446 73 174 0.0 0.0 5.70 0.00 0.00
20200928142946 66 174 0.0 0.0 5.70 0.00 0.00
20200928141447 62 174 0.0 0.0 5.70 0.00 0.00
20200928135948 56 174 0.0 0.0 5.70 0.00 0.00
20200928131448 50 174 0.0 0.0 5.70 0.00 0.00
20200928125947 52 174 0.0 0.0 5.70 0.00 0.00
20200928114446 54 174 0.0 0.0 5.70 0.00 0.00
20200928112946 56 174 0.0 0.0 5.70 0.00 0.00
20200928104446 56 174 0.0 0.0 5.70 0.00 0.00
20200928094448 59 174 0.0 0.0 5.70 0.00 0.00
20200928092945 59 174 0.0 0.0 5.70 0.00 0.00
20200928091446 63 174 0.0 0.0 5.70 0.00 0.00
20200928085945 64 53 0.0 0.0 5.70 0.00 0.00
20200928084445 64 86 0.0 0.0 5.70 0.00 0.00
20200928082946 63 77 0.0 0.0 5.70 0.00 0.00
20200928081447 64 77 0.0 0.0 5.70 0.00 0.00
20200928075945 66 77 0.0 0.0 5.70 0.00 0.00
20200928072946 63 104 0.0 0.0 5.70 0.00 0.00
20200928071445 65 104 0.0 0.0 5.70 0.00 0.00
20200928065945 65 104 0.0 0.0 5.70 0.00 0.00
20200928061445 67 127 0.0 0.0 5.70 0.00 0.00
20200928055945 66 127 0.0 0.0 5.70 0.00 0.00
20200928042945 68 134 0.0 0.0 5.70 0.00 0.00
20200928035947 70 141 0.0 0.0 5.70 0.00 0.00
20200928031446 73 141 0.0 0.0 5.70 0.00 0.00
20200928022945 76 158 0.0 0.0 5.70 0.00 0.00
20200928014522 81 169 0.0 0.0 5.70 0.00 0.00
20200928014447 81 169 0.0 0.0 5.70 0.00 0.00
20200928012948 82 167 2.0 0.0 5.70 0.00 0.00
20200928005945 88 235 0.0 0.0 5.70 0.00 0.00
20200928002945 91 281 11.0 0.0 5.70 0.00 0.00
20200927235946 94 245 0.0 0.0 5.70 0.00 0.00
20200927231446 92 298 6.0 0.0 5.70 0.00 0.00
20200927225946 94 262 0.0 0.0 5.70 0.00 0.00
20200927224445 94 311 7.0 0.0 5.70 0.00 0.00
20200927222948 92 285 4.0 0.0 5.70 0.00 0.00
20200927215944 91 325 7.0 0.0 5.70 0.00 0.00
20200927214448 94 257 0.0 0.0 5.70 0.00 0.00
20200927205946 94 150 0.0 0.0 5.70 0.00 0.00
20200927204445 95 25 0.0 0.0 5.70 0.00 0.00
20200927202944 92 315 2.0 0.0 5.70 0.00 0.00
20200927201445 92 270 5.0 0.0 5.70 0.00 0.00
20200927195944 94 217 0.0 0.0 5.70 0.00 0.00
20200927194446 91 339 4.0 0.0 5.70 0.00 0.00
20200927192944 91 328 5.0 0.0 5.70 0.00 0.00
20200927191446 92 357 0.0 0.0 5.70 0.00 0.00
20200927185945 89 273 0.0 0.0 5.70 0.00 0.00
20200927184444 90 242 0.0 0.0 5.70 0.00 0.00
20200927182944 90 215 0.0 0.0 5.70 0.00 0.00
20200927181446 88 200 0.0 0.0 5.70 0.00 0.00
20200927175944 90 239 2.0 0.0 5.70 0.00 0.00
20200927174445 88 257 3.0 0.0 5.70 0.00 0.00
20200927172944 89 217 0.0 0.0 5.70 0.00 0.00
20200927171451 86 214 0.0 0.0 5.70 0.00 0.00
20200927165947 78 219 0.0 0.0 5.70 0.00 0.00
20200927165945 88 219 0.0 0.0 5.70 0.00 0.00
20200927162947 81 212 0.0 0.0 5.70 0.00 0.00
20200927161446 80 200 0.0 0.0 5.70 0.00 0.00
20200927155944 80 217 0.0 0.0 5.70 0.00 0.00